Salem, OR

9:45 PM PST on February 11, 2016 (GMT -0800)
McNary

Weather History for KSLE - December, 2011

Change the Weather History Date:

Monday, December 12, 2011

  Actual Average Record
Temperature  
Mean Temperature 37 °F 40 °F  
Max Temperature 45 °F 46 °F 65 °F (1895)
Min Temperature 29 °F 34 °F 5 °F (1932)
Degree Days  
Heating Degree Days 28 25  
Month to date heating degree days 351 289  
Since 1 July heating degree days 1338 1406  
Cooling Degree Days 0 0  
Month to date cooling degree days 0 0  
Year to date cooling degree days 316 290  
Moisture  
Dew Point 27 °F    
Average Humidity 69    
Maximum Humidity 92    
Minimum Humidity 45    
Precipitation  
Precipitation 0.00 in 0.22 in 1.62 in (1907)
Month to date precipitation T 2.80  
Year to date precipitation 32.56 35.61  
Snow  
Snow 0.00 in - - ()
Month to date snowfall 0.0  
Snow Depth 0.00 in    
Sea Level Pressure  
Sea Level Pressure 30.11 in    
Wind  
Wind Speed 8 mph (North)    
Max Wind Speed 18 mph    
Max Gust Speed 23 mph    
Visibility 10 miles    
Events      
T = Trace of Precipitation, MM = Missing Value Source: NWS Daily Summary

Daily Weather History Graph

Daily Weather History Graph

Search for Another Location

Airport or City:

Trip Planner

Search our weather history database for the weather conditions in past years. The results will help you decide how hot, cold, wet, or windy it might be!

Date:

Astronomy

Dec. 12, 2011 Rise Set
Actual Time 7:40 AM PST 4:30 PM PST
Civil Twilight 7:06 AM PST 5:04 PM PST
Nautical Twilight 6:29 AM PST 5:41 PM PST
Astronomical Twilight 5:54 AM PST 6:17 PM PST
Moon 6:50 PM PST 9:14 AM PST
Length of Visible Light 9h 57m
Length of Day
8h 50m
Waning Gibbous, 95% of the Moon is Illuminated
Dec 12
Waning Gibbous
Dec 17
Last Quarter
Dec 24
New
Dec 31
First Quarter
Jan 8
Full

Hourly Weather History & Observations

Time (PST) Temp. Windchill Dew Point Humidity Pressure Visibility Wind Dir Wind Speed Gust Speed Precip Events Conditions
12:56 AM 37.9 °F 30.9 °F 32.0 °F 79% 30.15 in 10.0 mi North 10.4 mph - N/A   Overcast
1:56 AM 36.0 °F 29.6 °F 30.9 °F 82% 30.15 in 10.0 mi North 8.1 mph - N/A   Mostly Cloudy
3:56 AM 37.0 °F 29.8 °F 30.9 °F 79% 30.15 in 10.0 mi North 10.4 mph - N/A   Overcast
4:18 AM 35.6 °F 29.2 °F 30.2 °F 81% 30.15 in 10.0 mi North 8.1 mph - N/A   Scattered Clouds
4:56 AM 34.0 °F 27.2 °F 30.0 °F 85% 30.15 in 10.0 mi North 8.1 mph - N/A   Clear
5:56 AM 32.0 °F 28.7 °F 28.9 °F 88% 30.16 in 10.0 mi NNW 3.5 mph - N/A   Clear
6:56 AM 32.0 °F 28.7 °F 28.9 °F 88% 30.17 in 10.0 mi NW 3.5 mph - N/A   Partly Cloudy
7:56 AM 30.9 °F 23.5 °F 28.0 °F 89% 30.18 in 10.0 mi North 8.1 mph - N/A   Clear
8:56 AM 34.0 °F 28.8 °F 28.9 °F 82% 30.17 in 10.0 mi NNE 5.8 mph - N/A   Clear
9:15 AM 33.8 °F 29.6 °F 30.2 °F 87% 30.17 in 10.0 mi NNE 4.6 mph - N/A   Scattered Clouds
9:56 AM 36.0 °F 27.5 °F 30.0 °F 79% 30.17 in 10.0 mi North 12.7 mph 17.3 mph N/A   Partly Cloudy
10:56 AM 39.9 °F 33.4 °F 28.9 °F 65% 30.15 in 10.0 mi North 10.4 mph - N/A   Clear
11:56 AM 42.1 °F 35.7 °F 28.0 °F 58% 30.13 in 10.0 mi North 11.5 mph - N/A   Clear
12:56 PM 44.1 °F 38.1 °F 25.0 °F 47% 30.11 in 10.0 mi North 11.5 mph 19.6 mph N/A   Clear
1:56 PM 45.0 °F 37.9 °F 25.0 °F 46% 30.08 in 10.0 mi North 16.1 mph - N/A   Clear
2:56 PM 45.0 °F 39.3 °F 26.1 °F 48% 30.06 in 10.0 mi North 11.5 mph - N/A   Clear
4:56 PM 37.9 °F 33.5 °F 24.1 °F 57% 30.05 in 10.0 mi NNW 5.8 mph - N/A   Clear
5:56 PM 36.0 °F 30.3 °F 24.1 °F 62% 30.04 in 10.0 mi NNW 6.9 mph - N/A   Clear
6:56 PM 35.1 °F 28.6 °F 24.1 °F 64% 30.04 in 10.0 mi North 8.1 mph - N/A   Clear
7:56 PM 33.1 °F 27.7 °F 23.0 °F 66% 30.04 in 10.0 mi NNW 5.8 mph - N/A   Clear
8:56 PM 34.0 °F 31.0 °F 23.0 °F 64% 30.04 in 10.0 mi NW 3.5 mph - N/A   Clear
9:56 PM 32.0 °F 28.7 °F 23.0 °F 69% 30.04 in 10.0 mi WNW 3.5 mph - N/A   Clear
10:56 PM 32.0 °F 27.5 °F 23.0 °F 69% 30.04 in 10.0 mi WNW 4.6 mph - N/A   Clear
11:56 PM 30.9 °F - 21.9 °F 69% 30.03 in 10.0 mi Calm Calm - N/A   Clear